ONEWEB-0088, 45457

Orbit data source: Space-Track

ONEWEB-0088, 45457 is a payload satellite owned by One Web (UK) in LEO that was launched on Sat, 21 Mar 2020 UTC via a SOYUZ-2-1B launch vehicle from the Tyuratam Missile And Space Complex (TTMTR). Payload-class satellites include a variety of spacecraft equipped with specific instruments for various scientific and technological missions. These include communications satellites like Starlink; space stations such as the ISS; scientific satellites like the Hubble; Earth observation satellites from companies like Planet Labs, Umbra, and HawkEye 360; GPS; miniature CubeSats for education and research; and military/defense satellites.

Loading next visibility...
Identifier
45457, 2020-020AK
Orbit
LEO
Last TLE update
15 hours ago
Origin
Manufacturer
One Web
Mission
Operational Commercial Communications
Bus & Motor
ARROW, Unknown motor
Mass
148 kg wet, ~140 kg dry
Launch date (UTC)
2020-03-21 (5 years ago)
Launch vehicle
SOYUZ-2-1B
Launch site
Tyuratam Missile And Space Complex (TTMTR)
Object type
Payload
Rocket body
Debris
Shape & HBR
Trap Box + 2 Pan, 5 m
Radar Cross Section
2.957 m², Large (>1 m²)

Expand to show TLE details & history

TLE from 15 hours ago
0 ONEWEB-0088
1 45457U 20020AK  25181.78310606 -.00000400  00000-0 -11650-2 0  9998
2 45457  87.8835  91.0414 0001822  78.6718 281.4614 13.11417736256480
Epoch: 2025-06-30T18:47Z
TLE epoch observation values (Epoch: 2025-06-30T18:47:40.363Z)
Latitude
-0.00009°
Longitude
-109.96474°
Altitude
1,220.294 km
Speed
7.244 km/s
True Right ascension
06h 04m 09s
True Declination
0° 00' 00"
Sunlit
Object was in daylight at epoch
Visualization orbit readout
Latitude
15.2546°
Longitude
-109.5125°
Altitude
1,219.229 km
Speed
7.246 km/s
Apparent Right ascension
07h 18m 30s
Apparent Declination
-10° 26' 29"
Sunlit
Object is in daylight
Visualization observer readout
Local Sidereal Time
21:09:32
Azimuth
47.52° ENE
Elevation
-51.607°
Doppler factor
1
Orbital elements
Apogee altitude
1,216.181 km
Perigee altitude
1,213.414 km
Semi-major axis
7,592.935 km
Eccentricity
0.00018
Inclination
87.8835°
RAAN
91.0414°
Arg. of periapsis
78.6718°
True anomaly
Unknown
Mean anomaly
281.4614°
Eccentric anomaly
Unknown
Mean motion
3.28041 °/min
Orbital period
109.74 mins
BSTAR
-0.001165
Loading maneuver chart data...
Loading SW <> Apogee altitude chart data...
Loading historical data...
Loading historical data...
Loading historical data...
Loading historical data...
Loading historical data...
Loading historical data...
Loading historical data...

ONEWEB-0088 Visibility forecast

Observer location: undefined°, undefined°

Span
Click to sort rows by Start time (UTC) header in descending order
Start Az.
Max El. time (UTC)
Max El. Az.
Max El.
End time (UTC)
End Az.
9 mins2025-07-01 16:54:14.530Z116.699° SE2025-07-01 16:59:14.530Z71.633° E19.397°2025-07-01 17:03:14.530Z35.227° NE
13 mins2025-07-01 18:42:14.530Z190.919° SSW2025-07-01 18:48:14.530Z279.155° WNW43.148°2025-07-01 18:55:14.530Z355.789° N
7 mins2025-07-02 04:23:14.530Z39.678° NE2025-07-02 04:27:14.530Z74.411° E15.447°2025-07-02 04:30:14.530Z100.845° ESE
12 mins2025-07-02 06:12:14.530Z358.067° N2025-07-02 06:18:14.530Z209.376° SW44.631°2025-07-02 06:24:14.530Z183.889° SSW
5 mins2025-07-02 08:04:14.530Z309.475° NW2025-07-02 08:06:14.530Z292.338° WNW13.59°2025-07-02 08:09:14.530Z266.614° W
|